Location: Bonny Doon Airfield
(37.0704°N, 122.1252°W)
Time: 23:09:27
(UTC-07:00)

Vanguard 2 - Pass Details

Date: 16 December 2017
Orbit: 553 x 2939 km, 32.9° (Epoch: 16 July)

Event Time Altitude Azimuth Distance (km) Brightness Sun altitude
Rises 13:42:28 0° 234° (SW) 5,765 13.0 25.3°
Reaches altitude 10° 13:47:05 10° 228° (SW) 4,371 12.8 24.9°
Maximum altitude 13:57:06 41° 164° (SSE) 1,857 10.4 24.0°
Drops below altitude 10° 14:03:21 10° 96° (E) 2,736 10.2 23.4°
Sets 14:05:36 0° 88° (E) 3,455 10.6 23.2°
